When you browse on this site, cookies collect data to enhance your experience and personalize the content and advertising you see.
Visit our Privacy Policy to learn more. By continuing to use the site, you agree to this use of cookies and data.
  • In Switzerland
  • List of Countries
  • For 7 days
  • Water Temperature
  • Weather Map
  • Weather Widgets
  • user-avatar
    Login

    Hourly Weather Groningen

    Today, 15 December, Sunday

    Time Temperature Precipitation Wind Pressure Humidity
    00:00 +26°C° 0.5 mm 2 mps 757 mmHg 98%
    01:00 +26°C° 0.5 mm 2 mps 756 mmHg 98%
    02:00 +25°C° 0 mm 2 mps 756 mmHg 98%
    03:00 +25°C° 0.3 mm 2 mps 756 mmHg 98%
    04:00 +25°C° 0.3 mm 2 mps 756 mmHg 98%
    05:00 +25°C° 0.3 mm 2 mps 756 mmHg 99%
    06:00 +26°C° 0.1 mm 2 mps 757 mmHg 94%
    07:00 +27°C° 0.1 mm 2 mps 757 mmHg 90%
    08:00 +28°C° 0.1 mm 2 mps 758 mmHg 86%
    09:00 +30°C° 0.4 mm 3 mps 758 mmHg 81%
    10:00 +31°C° 0.4 mm 3 mps 758 mmHg 75%
    11:00 +33°C° 0.4 mm 3 mps 758 mmHg 70%
    12:00 +33°C° 1.2 mm 3 mps 757 mmHg 74%
    13:00 +31°C° 1.2 mm 3 mps 756 mmHg 77%
    14:00 +32°C° 1.2 mm 4 mps 755 mmHg 80%
    15:00 +30°C° 0.3 mm 3 mps 755 mmHg 82%
    16:00 +29°C° 0.3 mm 3 mps 755 mmHg 85%
    17:00 +28°C° 0.3 mm 3 mps 755 mmHg 87%
    18:00 +28°C° 0 mm 3 mps 756 mmHg 89%
    19:00 +27°C° 0 mm 3 mps 756 mmHg 91%
    20:00 +26°C° 0 mm 3 mps 757 mmHg 93%
    21:00 +26°C° 0.1 mm 3 mps 757 mmHg 94%
    22:00 +26°C° 0.1 mm 3 mps 757 mmHg 95%
    23:00 +26°C° 0.1 mm 3 mps 758 mmHg 95%

    Tomorrow, 16 December, Monday

    Time Temperature Precipitation Wind Pressure Humidity
    00:00 +26°C° 0.4 mm 3 mps 757 mmHg 96%
    01:00 +26°C° 0.4 mm 3 mps 756 mmHg 96%
    02:00 +26°C° 0.4 mm 3 mps 756 mmHg 96%
    03:00 +26°C° 0.4 mm 3 mps 756 mmHg 96%
    04:00 +26°C° 0.4 mm 3 mps 756 mmHg 96%
    05:00 +26°C° 0.4 mm 3 mps 756 mmHg 96%
    06:00 +27°C° 0.1 mm 3 mps 756 mmHg 92%
    07:00 +28°C° 0.1 mm 3 mps 757 mmHg 87%
    08:00 +28°C° 0.1 mm 4 mps 757 mmHg 83%
    09:00 +29°C° 1 mm 4 mps 757 mmHg 85%
    10:00 +29°C° 1 mm 4 mps 757 mmHg 86%
    11:00 +29°C° 1 mm 4 mps 758 mmHg 88%
    12:00 +29°C° 1.1 mm 4 mps 757 mmHg 88%
    13:00 +29°C° 1.1 mm 4 mps 756 mmHg 88%
    14:00 +29°C° 1.1 mm 4 mps 755 mmHg 88%
    15:00 +28°C° 0.2 mm 4 mps 755 mmHg 88%
    16:00 +28°C° 0.2 mm 4 mps 755 mmHg 88%
    17:00 +28°C° 0.2 mm 4 mps 755 mmHg 89%
    18:00 +27°C° 0.1 mm 4 mps 755 mmHg 90%
    19:00 +26°C° 0.1 mm 4 mps 756 mmHg 92%
    20:00 +26°C° 0.1 mm 4 mps 756 mmHg 94%
    21:00 +26°C° 0.2 mm 3 mps 756 mmHg 96%
    22:00 +25°C° 0.2 mm 3 mps 757 mmHg 97%
    23:00 +25°C° 0.2 mm 3 mps 757 mmHg 98%

    Day after tomorrow, 17 December, Tuesday

    Time Temperature Precipitation Wind Pressure Humidity
    00:00 +25°C° 0.1 mm 3 mps 756 mmHg 98%
    01:00 +25°C° 0.1 mm 3 mps 756 mmHg 98%
    02:00 +25°C° 0.1 mm 3 mps 755 mmHg 98%
    03:00 +25°C° 0.3 mm 3 mps 755 mmHg 97%
    04:00 +25°C° 0.3 mm 3 mps 755 mmHg 97%
    05:00 +25°C° 0.3 mm 3 mps 755 mmHg 97%
    06:00 +26°C° 0 mm 3 mps 756 mmHg 94%
    07:00 +27°C° 0 mm 4 mps 756 mmHg 91%
    08:00 +27°C° 0 mm 4 mps 757 mmHg 87%
    09:00 +29°C° 0.1 mm 4 mps 757 mmHg 77%
    10:00 +32°C° 0.1 mm 4 mps 757 mmHg 68%
    11:00 +33°C° 0.1 mm 4 mps 757 mmHg 58%
    12:00 +33°C° 0.1 mm 4 mps 756 mmHg 59%
    13:00 +33°C° 0.1 mm 5 mps 755 mmHg 61%
    14:00 +33°C° 0.1 mm 5 mps 755 mmHg 62%
    15:00 +30°C° 0 mm 5 mps 754 mmHg 66%
    16:00 +29°C° 0 mm 4 mps 754 mmHg 70%
    17:00 +28°C° 0 mm 4 mps 754 mmHg 74%
    18:00 +28°C° 0 mm 4 mps 755 mmHg 78%
    19:00 +27°C° 0 mm 4 mps 755 mmHg 83%
    20:00 +26°C° 0 mm 4 mps 755 mmHg 87%
    21:00 +26°C° 0 mm 3 mps 756 mmHg 89%
    22:00 +25°C° 0 mm 3 mps 756 mmHg 90%
    23:00 +25°C° 0 mm 3 mps 756 mmHg 91%

    18 December, Wednesday

    Time Temperature Precipitation Wind Pressure Humidity
    00:00 +25°C° 0.2 mm 3 mps 756 mmHg 92%
    01:00 +25°C° 0.2 mm 3 mps 755 mmHg 93%
    02:00 +25°C° 0.2 mm 3 mps 755 mmHg 94%
    03:00 +24°C° 0.2 mm 3 mps 755 mmHg 95%
    04:00 +24°C° 0.2 mm 3 mps 755 mmHg 96%
    05:00 +24°C° 0.2 mm 3 mps 755 mmHg 96%
    06:00 +26°C° 0.1 mm 3 mps 756 mmHg 89%
    07:00 +27°C° 0.1 mm 3 mps 756 mmHg 82%
    08:00 +29°C° 0.1 mm 4 mps 757 mmHg 75%
    09:00 +29°C° 0.9 mm 4 mps 757 mmHg 79%
    10:00 +29°C° 0.9 mm 3 mps 757 mmHg 83%
    11:00 +29°C° 0.9 mm 3 mps 757 mmHg 88%
    12:00 +29°C° 1 mm 4 mps 756 mmHg 88%
    13:00 +29°C° 1 mm 4 mps 755 mmHg 88%
    14:00 +29°C° 1 mm 4 mps 755 mmHg 88%
    15:00 +28°C° 0.6 mm 4 mps 755 mmHg 89%
    16:00 +28°C° 0.6 mm 4 mps 755 mmHg 90%
    17:00 +27°C° 0.6 mm 3 mps 755 mmHg 92%
    18:00 +27°C° 0 mm 4 mps 755 mmHg 93%
    19:00 +26°C° 0 mm 4 mps 756 mmHg 94%
    20:00 +25°C° 0 mm 4 mps 756 mmHg 95%
    21:00 +25°C° 0.1 mm 3 mps 756 mmHg 96%
    22:00 +25°C° 0.1 mm 3 mps 756 mmHg 97%
    23:00 +25°C° 0.1 mm 3 mps 756 mmHg 97%

    19 December, Thursday

    Time Temperature Precipitation Wind Pressure Humidity
    00:00 +25°C° 0.2 mm 3 mps 756 mmHg 98%
    01:00 +24°C° 0.2 mm 2 mps 755 mmHg 98%
    02:00 +24°C° 0.2 mm 2 mps 755 mmHg 99%
    03:00 +24°C° 0.6 mm 2 mps 755 mmHg 99%
    04:00 +24°C° 0.6 mm 2 mps 755 mmHg 99%
    05:00 +24°C° 0.6 mm 2 mps 755 mmHg 99%
    06:00 +25°C° 0.2 mm 2 mps 756 mmHg 97%
    07:00 +26°C° 0.2 mm 2 mps 757 mmHg 94%
    08:00 +27°C° 0.2 mm 2 mps 757 mmHg 92%
    09:00 +28°C° 1.1 mm 2 mps 757 mmHg 91%
    10:00 +28°C° 1.1 mm 3 mps 757 mmHg 91%
    11:00 +29°C° 1.1 mm 3 mps 757 mmHg 90%
    12:00 +29°C° 1.7 mm 3 mps 756 mmHg 91%
    13:00 +29°C° 1.7 mm 3 mps 756 mmHg 92%
    14:00 +28°C° 1.7 mm 4 mps 755 mmHg 92%
    15:00 +28°C° 0.9 mm 4 mps 755 mmHg 94%
    16:00 +27°C° 0.9 mm 4 mps 755 mmHg 95%
    17:00 +27°C° 0.9 mm 3 mps 755 mmHg 96%
    18:00 +26°C° 0 mm 3 mps 756 mmHg 96%
    19:00 +26°C° 0 mm 3 mps 756 mmHg 97%
    20:00 +25°C° 0 mm 3 mps 757 mmHg 97%
    21:00 +25°C° 0 mm 3 mps 757 mmHg 98%
    22:00 +25°C° 0 mm 3 mps 757 mmHg 98%
    23:00 +25°C° 0 mm 3 mps 757 mmHg 98%

    20 December, Friday

    Time Temperature Precipitation Wind Pressure Humidity
    00:00 +25°C° 0.1 mm 3 mps 756 mmHg 98%
    01:00 +25°C° 0.1 mm 3 mps 756 mmHg 98%
    02:00 +25°C° 0.1 mm 3 mps 755 mmHg 98%
    03:00 +25°C° 0.1 mm 3 mps 756 mmHg 98%
    04:00 +25°C° 0.1 mm 3 mps 756 mmHg 97%
    05:00 +25°C° 0.1 mm 3 mps 756 mmHg 97%
    06:00 +26°C° 0.1 mm 3 mps 756 mmHg 94%
    07:00 +27°C° 0.1 mm 3 mps 757 mmHg 90%
    08:00 +28°C° 0.1 mm 3 mps 758 mmHg 87%
    09:00 +29°C° 0.1 mm 4 mps 758 mmHg 76%
    10:00 +32°C° 0.1 mm 4 mps 758 mmHg 66%
    11:00 +34°C° 0.1 mm 4 mps 758 mmHg 55%
    12:00 +34°C° 0 mm 5 mps 757 mmHg 55%
    13:00 +34°C° 0 mm 5 mps 756 mmHg 54%
    14:00 +34°C° 0 mm 5 mps 755 mmHg 54%
    15:00 +33°C° 0 mm 4 mps 755 mmHg 58%
    16:00 +32°C° 0 mm 4 mps 755 mmHg 62%
    17:00 +30°C° 0 mm 4 mps 755 mmHg 66%
    18:00 +28°C° 0 mm 4 mps 755 mmHg 72%
    19:00 +27°C° 0 mm 3 mps 756 mmHg 78%
    20:00 +26°C° 0 mm 3 mps 757 mmHg 84%
    21:00 +26°C° 0 mm 3 mps 757 mmHg 87%
    22:00 +25°C° 0 mm 3 mps 757 mmHg 89%
    23:00 +25°C° 0 mm 3 mps 757 mmHg 92%
    Show more